Martinsburg, WV

1:21 AM EDT on October 22, 2017 (GMT -0400)
Eastern W Va Regional-Shepherd

Weather History for KMRB - January, 2013

Change the Weather History Date:

Wednesday, January 16, 2013

  Actual Average Record
Temperature  
Mean Temperature 39 °F 31 °F  
Max Temperature 44 °F 39 °F 73 °F (1932)
Min Temperature 33 °F 22 °F -2 °F (1972)
Degree Days  
Heating Degree Days 26 34  
Month to date heating degree days 419 544  
Since 1 July heating degree days 2305 2570  
Cooling Degree Days 0 0  
Month to date cooling degree days 0 0  
Year to date cooling degree days 0 0  
Moisture  
Dew Point 33 °F    
Average Humidity 91    
Maximum Humidity 96    
Minimum Humidity 85    
Precipitation  
Precipitation 0.57 in 0.08 in 0.67 in (1945)
Month to date precipitation 1.40 1.21  
Year to date precipitation 1.40 1.21  
Sea Level Pressure  
Sea Level Pressure 30.02 in    
Wind  
Wind Speed 1 mph (ENE)    
Max Wind Speed 12 mph    
Max Gust Speed 14 mph    
Visibility 5 miles    
Events Rain    
T = Trace of Precipitation, MM = Missing Value Source: NWS Daily Summary

Daily Weather History Graph

Daily Weather History Graph

Search for Another Location

Airport or City:

Trip Planner

Search our weather history database for the weather conditions in past years. The results will help you decide how hot, cold, wet, or windy it might be!

Date:

Astronomy

Jan. 16, 2013 Rise Set
Actual Time 7:29 AM EST 5:14 PM EST
Civil Twilight 7:00 AM EST 5:43 PM EST
Nautical Twilight 6:27 AM EST 6:16 PM EST
Astronomical Twilight 5:55 AM EST 6:48 PM EST
Moon 10:07 AM EST (1/16) 11:01 PM EST (1/16)
Length of Visible Light 10h 43m
Length of Day
9h 44m
Waxing Crescent, 28% of the Moon is Illuminated
Jan 16
Waxing Crescent
Jan 18
First Quarter
Jan 26
Full
Feb 3
Last Quarter
Feb 10
New

Hourly Weather History & Observations

Time (EST) Temp. Windchill Dew Point Humidity Pressure Visibility Wind Dir Wind Speed Gust Speed Precip Events Conditions
12:22 AM 33.8 °F 28.6 °F 30.2 °F 87% 30.13 in 2.5 mi NNE 5.8 mph - 0.06 in Rain Light Rain
12:53 AM 33.1 °F 30.0 °F 30.9 °F 92% 30.15 in 2.5 mi North 3.5 mph - 0.15 in Rain Rain
1:10 AM 33.8 °F 30.8 °F 30.2 °F 87% 30.13 in 3.0 mi North 3.5 mph - 0.04 in Rain Rain
1:24 AM 33.8 °F 29.6 °F 30.2 °F 87% 30.14 in 2.0 mi North 4.6 mph - 0.09 in Rain Rain
1:49 AM 33.8 °F - 30.2 °F 87% 30.14 in 2.0 mi Calm Calm - 0.16 in Rain Rain
1:53 AM 33.1 °F - 30.9 °F 92% 30.15 in 2.0 mi Calm Calm - 0.17 in Rain Rain
2:17 AM 33.8 °F - 30.2 °F 87% 30.13 in 2.5 mi Calm Calm - 0.03 in Rain Light Rain
2:33 AM 33.8 °F - 30.2 °F 87% 30.11 in 3.0 mi Calm Calm - 0.04 in Rain Light Rain
4:53 AM 34.0 °F - 30.9 °F 89% 30.08 in 6.0 mi Calm Calm - 0.00 in Rain Light Rain
5:19 AM 33.8 °F - 32.0 °F 93% 30.06 in 5.0 mi Calm Calm - 0.01 in Rain Light Rain
5:53 AM 34.0 °F - 32.0 °F 92% 30.06 in 6.0 mi Calm Calm - 0.03 in Rain Light Rain
6:11 AM 33.8 °F - 32.0 °F 93% 30.06 in 5.0 mi Calm Calm - 0.00 in   Overcast
6:53 AM 34.0 °F - 32.0 °F 92% 30.04 in 4.0 mi Calm Calm - 0.03 in Rain Light Rain
7:53 AM 34.0 °F - 32.0 °F 92% 30.03 in 4.0 mi Calm Calm - 0.06 in Rain Light Rain
8:17 AM 33.8 °F 29.6 °F 32.0 °F 93% 30.00 in 2.0 mi SSE 4.6 mph - 0.01 in Rain Light Rain
8:48 AM 33.8 °F - 32.0 °F 93% 29.99 in 2.0 mi Calm Calm - 0.03 in Rain Light Rain
8:53 AM 34.0 °F - 32.0 °F 92% 30.04 in 2.0 mi Calm Calm - 0.03 in Rain Light Rain
9:00 AM 33.8 °F - 32.0 °F 93% 30.03 in 5.0 mi Calm Calm - 0.00 in Rain Light Rain
9:19 AM 35.6 °F - 33.8 °F 93% 30.02 in 6.0 mi Calm Calm - 0.01 in Rain Light Rain
9:53 AM 35.1 °F - 33.1 °F 92% 30.03 in 5.0 mi Calm Calm - 0.02 in Rain Light Rain
9:59 AM 35.6 °F 31.7 °F 33.8 °F 93% 29.99 in 2.5 mi SE 4.6 mph - 0.01 in Rain Light Rain
10:45 AM 35.6 °F 32.8 °F 33.8 °F 93% 29.98 in 6.0 mi South 3.5 mph - 0.01 in Rain Light Rain
10:53 AM 36.0 °F 30.3 °F 33.1 °F 89% 29.97 in 7.0 mi SSE 6.9 mph - 0.02 in Rain Light Rain
11:53 AM 37.0 °F - 34.0 °F 89% 29.88 in 10.0 mi Calm Calm - 0.01 in Rain Light Rain
12:53 PM 37.0 °F 33.3 °F 35.1 °F 93% 29.86 in 7.0 mi ENE 4.6 mph - 0.00 in   Overcast
1:53 PM 37.0 °F 32.4 °F 34.0 °F 89% 29.92 in 5.0 mi NNE 5.8 mph - N/A   Overcast
2:53 PM 37.0 °F - 34.0 °F 89% 29.93 in 8.0 mi Calm Calm - N/A   Overcast
3:53 PM 37.0 °F - 35.1 °F 93% 29.94 in 5.0 mi Calm Calm - N/A   Mostly Cloudy
4:53 PM 37.9 °F - 35.1 °F 89% 29.97 in 6.0 mi Calm Calm - N/A   Overcast
5:53 PM 37.0 °F - 35.1 °F 93% 29.98 in 5.0 mi Calm Calm - N/A   Partly Cloudy
6:53 PM 37.0 °F 33.3 °F 35.1 °F 93% 29.99 in 5.0 mi SSW 4.6 mph - N/A   Clear
7:53 PM 37.9 °F - 36.0 °F 93% 29.99 in 7.0 mi Calm Calm - N/A   Overcast
8:53 PM 39.0 °F - 36.0 °F 89% 29.98 in 8.0 mi Calm Calm - N/A   Partly Cloudy
9:53 PM 39.9 °F - 36.0 °F 86% 30.00 in 10.0 mi Calm Calm - N/A   Overcast
10:53 PM 37.9 °F - 36.0 °F 93% 29.99 in 6.0 mi Calm Calm - N/A   Clear
11:53 PM 43.0 °F 38.2 °F 34.0 °F 71% 29.98 in 10.0 mi West 8.1 mph - N/A   Scattered Clouds